OneWeb SL0698

operational
NORAD ID: 61604 Int'l Des: 2024-188 Owner: ONEWEBE Country: UK Constellation: oneweb
LEOCIRCULARPOLARONEWEB_TYPE

关于 OneWeb SL0698

正在加载描述...

实时位置

正在加载3D地球...

即将过境

高度历史

Altitude vs Time

uPlot chart will show altitude changes over time

两行轨道根数

1 61604U 24188L 25298.81897154 .00000515 00000-0 14185-2 0 9991
2 61604 87.8829 67.7630 0002562 118.2193 241.9194 13.11416742 53750
Epoch: Oct 25, 2025 • Age: 8 hours

当前状态

高度 1222.7 km
速度 7.25 km/s
星下点 38.46°N, 13°W
发射日期 Oct 20, 2024
运行时间 1 years
类型 internet

技术详情

分类 Payload
质量 148.00 kg
干质量 140.00 kg
总质量 148.00 kg
长度 1.30 m
直径 1.00 m
跨度 5.00 m
形状 Trapezoid+2 pan
制造商 ONEWUS
平台类型 ARROW
阶段状态 In Orbit
所有者/国家 ONEWEBE/UK

大型星座

Loading constellations...